STARLINK-1738, 46336

Orbit data source: Space-Track

STARLINK-1738, 46336 is a payload satellite owned by SpaceX/Seattle (US) in LEO that was launched on Thu, 03 Sep 2020 UTC via an FALCON 9 launch vehicle from the Air Force Eastern Test Range (AFETR). Payload-class satellites include a variety of spacecraft equipped with specific instruments for various scientific and technological missions. These include communications satellites like Starlink; space stations such as the ISS; scientific satellites like the Hubble; Earth observation satellites from companies like Planet Labs, Umbra, and HawkEye 360; GPS; miniature CubeSats for education and research; and military/defense satellites.

Loading next visibility...
Identifier
46336, 2020-062M
Orbit
LEO
Last TLE update
7 hours ago
Origin
Manufacturer
SpaceX/Seattle
Mission
Operational Commercial Communications
Bus & Motor
STARLINK, Unknown motor
Mass
260 kg wet, ~248 kg dry
Launch date (UTC)
2020-09-03 (5 years ago)
Launch vehicle
FALCON 9
Launch site
Air Force Eastern Test Range (AFETR)
Object type
Payload
Rocket body
Debris
Shape & HBR
Box + 1 Pan, 8.86 m
Radar Cross Section
13.562 m², Large (>1 m²)

Expand to show TLE details & history

TLE from 7 hours ago
0 STARLINK-1738
1 46336U 20062M   25182.63259165 -.00000535  00000-0 -17014-4 0  9999
2 46336  53.0561  43.6604 0001552  89.8888 270.2279 15.06392460266749
Epoch: 2025-07-01T15:10Z
TLE epoch observation values (Epoch: 2025-07-01T15:10:55.918Z)
Latitude
-0.00001°
Longitude
-103.99786°
Altitude
548.11 km
Speed
7.589 km/s
True Right ascension
02h 54m 38s
True Declination
0° 00' 00"
Sunlit
Object was in daylight at epoch
Visualization orbit readout
Latitude
47.69294°
Longitude
-49.98698°
Altitude
551.54 km
Speed
7.592 km/s
Apparent Right ascension
01h 47m 57s
Apparent Declination
15° 39' 05"
Sunlit
Object is in daylight
Visualization observer readout
Local Sidereal Time
09:31:16
Azimuth
298.782° NW
Elevation
-8.55°
Doppler factor
1
Orbital elements
Apogee altitude
548.58 km
Perigee altitude
546.43 km
Semi-major axis
6,925.642 km
Eccentricity
0.00016
Inclination
53.0561°
RAAN
43.6604°
Arg. of periapsis
89.8888°
True anomaly
Unknown
Mean anomaly
270.2279°
Eccentric anomaly
Unknown
Mean motion
3.76576 °/min
Orbital period
95.6 mins
BSTAR
-0.000017014
Loading maneuver chart data...
Loading SW <> Apogee altitude chart data...
Loading historical data...
Loading historical data...
Loading historical data...
Loading historical data...
Loading historical data...
Loading historical data...
Loading historical data...

STARLINK-1738 Visibility forecast

Observer location: undefined°, undefined°

Span
Click to sort rows by Start time (UTC) header in descending order
Start Az.
Max El. time (UTC)
Max El. Az.
Max El.
End time (UTC)
End Az.
5 mins2025-07-01 23:37:56.907Z337.096° NNW2025-07-01 23:39:56.907Z27.256° NE31.076°2025-07-01 23:42:56.907Z93.755° ESE
6 mins2025-07-02 01:16:56.907Z284.149° WNW2025-07-02 01:19:56.907Z214.579° SW28.342°2025-07-02 01:22:56.907Z165.098° S
6 mins2025-07-02 16:49:56.907Z197.304° SSW2025-07-02 16:51:56.907Z154.033° SSE34.034°2025-07-02 16:55:56.907Z63.191° ENE
5 mins2025-07-02 18:29:56.907Z283.602° WNW2025-07-02 18:31:56.907Z329.458° NNW27.14°2025-07-02 18:34:56.907Z29.204° NE
|